カタログに戻る

SL-14 DEB

運用中PO
NORAD 19580·DEBRIS·🇷🇺 Russia

打ち上げ Oct 26, 1978 から Plesetsk Cosmodrome

Loading…

次のパス (今後24時間)

TLE

最新Source: Space-Track

元期: Sep 14, 2026, 10:22 UTC

1 19580U 78100AL  26257.43240332  .00000102  00000-0  47696-3 0  9990
2 19580  82.6497 246.8318 0301622 292.0576 224.0307 12.56657742707825

AllMySatでSL-14 DEBをリアルタイム追跡

Download on the App Store